Overview Statistics Trail Chart Weather Telemetry Raw packets
 

This is the latest recevied weather packets stored in our database for station/object SP2CDN-10. If no packets are shown the sender has not sent any weather packets the latest 10 day(s).

<< 5 6 7 8 9 10 11 >>
Time Temp. Humidity Pressure Rain* Wind** Luminosity Snow
1788321399 13.33° C 100% 1016.6 hPa - - - -
1788319118 13.33° C 100% 1016.5 hPa - - - -
1788316837 13.33° C 100% 1016.6 hPa - - - -
1788315461 13.33° C 100% 1016.6 hPa - - - -
1788313180 13.89° C 100% 1016.5 hPa - - - -
1788310898 13.89° C 100% 1016.4 hPa - - - -
1788308617 14.44° C 100% 1016.2 hPa - - - -
1788306335 15° C 100% 1016.2 hPa - - - -
1788304054 15° C 100% 1015.9 hPa - - - -
1788301772 15° C 100% 1016.2 hPa - - - -
1788299491 15° C 100% 1016.3 hPa - - - -
1788297209 15° C 100% 1016.1 hPa - - - -
1788294932 15° C 100% 1016.2 hPa - - - -
1788292649 15.56° C 96% 1016.3 hPa - - - -
1788290364 16.67° C 93% 1016 hPa - - - -
1788288082 16.67° C 93% 1015.7 hPa - - - -
1788285803 17.22° C 90% 1015.3 hPa - - - -
1788283518 17.78° C 87% 1014.9 hPa - - - -
1788281241 20.56° C 79% 1014.7 hPa - - - -
1788278959 21.11° C 78% 1014.5 hPa - - - -
1788276676 19.44° C 79% 1014.5 hPa - - - -
1788274392 19.44° C 86% 1014.3 hPa - - - -
1788272110 20° C 65% 1014.1 hPa - - - -
1788269828 24.44° C 52% 1014.1 hPa - - - -
1788267547 21.67° C 56% 1014 hPa - - - -

* Rain since midnight (hover to see other rain measurements)
** Current wind speed in m/s (hover to see current wind gust speed)